This is the latest recevied weather packets stored in our database for station/object SV9TNF-4. If no packets are shown the sender has not sent any weather packets the latest 10 day(s).
| Time | Temp. | Humidity | Pressure | Rain* | Wind** | Luminosity | Snow |
|---|---|---|---|---|---|---|---|
| 1777910260 | 16.67° C | 62% | 1019.6 hPa | 0 mm | 19.22 m/s, 307° | - | - |
| 1777909960 | 16.67° C | 62% | 1019.6 hPa | 0 mm | 19.22 m/s, 307° | - | - |
| 1777909660 | 16.67° C | 62% | 1019.6 hPa | 0 mm | 19.22 m/s, 307° | - | - |
| 1777909360 | 17.78° C | 54% | 1020 hPa | 0 mm | 11.18 m/s, 302° | - | - |
| 1777909060 | 17.78° C | 54% | 1020 hPa | 0 mm | 11.18 m/s, 302° | - | - |
| 1777908759 | 17.78° C | 54% | 1020 hPa | 0 mm | 11.18 m/s, 302° | - | - |
| 1777908459 | 17.78° C | 54% | 1020 hPa | 0 mm | 11.18 m/s, 302° | - | - |
| 1777908159 | 17.78° C | 54% | 1020 hPa | 0 mm | 11.18 m/s, 302° | - | - |
| 1777907859 | 17.78° C | 54% | 1020 hPa | 0 mm | 11.18 m/s, 302° | - | - |
| 1777907560 | 17.78° C | 54% | 1020 hPa | 0 mm | 11.18 m/s, 302° | - | - |
| 1777907259 | 17.78° C | 54% | 1020 hPa | 0 mm | 11.18 m/s, 302° | - | - |
| 1777906959 | 17.78° C | 54% | 1020 hPa | 0 mm | 11.18 m/s, 302° | - | - |
| 1777906659 | 17.78° C | 54% | 1020 hPa | 0 mm | 11.18 m/s, 302° | - | - |
| 1777906359 | 17.78° C | 54% | 1020 hPa | 0 mm | 11.18 m/s, 302° | - | - |
| 1777906059 | 17.78° C | 54% | 1020 hPa | 0 mm | 11.18 m/s, 302° | - | - |
| 1777905759 | 18.33° C | 53% | 1020.3 hPa | 0 mm | 16.09 m/s, 264° | - | - |
| 1777905459 | 18.33° C | 53% | 1020.3 hPa | 0 mm | 16.09 m/s, 264° | - | - |
| 1777905158 | 18.33° C | 53% | 1020.3 hPa | 0 mm | 16.09 m/s, 264° | - | - |
| 1777904858 | 17.78° C | 54% | 1020.3 hPa | 0 mm | 14.31 m/s, 278° | - | - |
| 1777904558 | 17.78° C | 54% | 1020.3 hPa | 0 mm | 14.31 m/s, 278° | - | - |
| 1777904258 | 17.78° C | 54% | 1020.3 hPa | 0 mm | 14.31 m/s, 278° | - | - |
| 1777903958 | 17.78° C | 54% | 1020.3 hPa | 0 mm | 14.31 m/s, 278° | - | - |
| 1777903658 | 18.33° C | 51% | 1020.3 hPa | 0 mm | 12.96 m/s, 293° | - | - |
| 1777903358 | 18.33° C | 51% | 1020.3 hPa | 0 mm | 12.96 m/s, 293° | - | - |
| 1777902626 | 18.33° C | 52% | 1020.3 hPa | 0 mm | 19.22 m/s, 286° | - | - |
* Rain latest hour (hover to see other rain measurements)
** Current wind speed in m/s (hover to see current wind gust speed)